This demonstration page uses our WeatherBlox Daily Observations layout. Learn more.

Left ArrowRight Arrow

Hourly Observations for January 7, 2017

Temp ( °F °C ) Dew Point ( °F °C ) Humidity (%) Winds ( mph kmh ) Pressure ( in mb ) Visibility ( mi km ) Precip ( " mm )
12:58 am 00:58 Mostly Clear 2 -16.4 0 -18 88 88 E 3 6 30.46 1032 10 16 0.00 0.00
1:58 am 01:58 Mostly Cloudy 4 -15.4 1 -17 88 88 Calm 30.46 1032 10 16 0.00 0.00
2:58 am 02:58 Mostly Clear 2 -16.9 -1 -18.2 90 90 ESE 3 6 30.49 1033 10 16 0.00 0.00
3:58 am 03:58 Clear 1 -17.1 -1 -18.5 89 89 Calm 30.51 1033 10 16 0.00 0.00
4:58 am 04:58 Clear 1 -17.2 -1 -18.4 90 90 W 3 6 30.53 1034 10 16 0.00 0.00
5:58 am 05:58 Clear 0 -18 -2 -19 92 92 WNW 5 7 30.55 1034 10 16 0.00 0.00
6:58 am 06:58 Clear 4 -15.4 1 -17.4 85 85 WNW 5 7 30.58 1036 10 16 0.00 0.00
7:58 am 07:58 Sunny 5 -15 2 -16.6 88 88 WNW 6 9 30.62 1037 10 16 0.00 0.00
8:58 am 08:58 Sunny 10 -12 8 -13.5 89 89 WNW 7 11 30.65 1038 10 16 0.00 0.00
9:58 am 09:58 Sunny 15 -9.2 10 -12.4 78 78 NNW 9 15 30.68 1039 10 16 0.00 0.00
10:58 am 10:58 Sunny 17 -8.6 9 -12.7 73 73 NNW 15 24 30.73 1041 10 16 0.00 0.00
11:58 am 11:58 Sunny 19 -7.3 9 -12.6 66 66 NNW 8 13 30.72 1040 10 16 0.00 0.00
12:58 pm 12:58 Sunny 19 -7 8 -13.3 61 61 N 8 13 30.71 1040 10 16 0.00 0.00
1:58 pm 13:58 Sunny 21 -6.1 8 -13.3 57 57 NW 8 13 30.72 1040 10 16 0.00 0.00
2:58 pm 14:58 Sunny 22 -5.8 7 -13.9 53 53 NW 7 11 30.73 1041 10 16 0.00 0.00
3:58 pm 15:58 Sunny 21 -6.1 6 -14.3 53 53 N 7 11 30.75 1041 10 16 0.00 0.00
4:58 pm 16:58 Sunny 18 -7.6 6 -14.5 58 58 N 6 9 30.75 1041 10 16 0.00 0.00
5:58 pm 17:58 Clear 14 -10.1 5 -15.1 67 67 NNW 3 6 30.77 1042 10 16 0.00 0.00
6:58 pm 18:58 Clear 10 -12.1 4 -15.7 75 75 Calm 30.78 1042 10 16 0.00 0.00
7:58 pm 19:58 Clear 6 -14.7 3 -16.2 88 88 Calm 30.78 1042 10 16 0.00 0.00
8:58 pm 20:58 Clear 7 -13.9 4 -15.7 86 86 Calm 30.79 1043 10 16 0.00 0.00
9:58 pm 21:58 Clear 3 -16.1 1 -17.5 89 89 Calm 30.78 1042 10 16 0.00 0.00
10:58 pm 22:58 Clear 1 -17 -1 -18.1 91 91 Calm 30.76 1042 10 16 0.00 0.00
11:58 pm 23:58 Clear 2 -16.4 1 -17.5 91 91 Calm 30.74 1041 10 16 0.00 0.00

Powered by AerisWeather